Regional Weather Roundup
Issued by NWS

Home | Current Version | Previous Version | Text Only | Print | Product List | Glossary Off
Versions: 1 2 3 4 5 6 7 8 9 10 11 12 13 14 15 16 17 18 19 20 21 22 23 24 25 26 27 28 29 30 31 32 33 34 35 36 37 38 39 40 41 42 43 44 45 46 47 48 49 50

942
ASUS45 KBOU 272007
RWRCO

WEATHER ROUNDUP FOR COLORADO
NATIONAL WEATHER SERVICE DENVER/BOULDER CO
200 PM MDT THU JUL 27 2017

NOTE: "FAIR" INDICATES FEW OR NO CLOUDS BELOW 12000 FEET WITH NO
SIGNIFICANT WEATHER AND/OR OBSTRUCTIONS TO VISIBILITY.

COZ001>005-013-030-031-272100-
...NORTHWEST COLORADO...

CITY           SKY/WX    TMP DP  RH WIND       PRES   REMARKS
CRAIG          FAIR      85  47  26 VRB5      30.23F
HAYDEN         FAIR      81  46  30 W14       30.26F
MEEKER         FAIR      86  45  23 MISG      30.24F
RABBIT EARS PA FAIR      64  50  59 W6G23     30.59F
STEAMBOAT SPGS FAIR      81  49  32 S8        30.28F
WALDEN         FAIR      75  48  38 SW9       30.40S
$$

COZ006>008-011-272100-
...WEST CENTRAL VALLEYS...

CITY           SKY/WX    TMP DP  RH WIND       PRES   REMARKS
GRAND JUNCTION FAIR      93  47  20 VRB7      30.10F
MONTROSE       FAIR      86  48  26 W9        30.19F
EAGLE          MOSUNNY   81  48  32 W9        30.26F
RIFLE          FAIR      89  50  26 NW7       30.15F
DELTA          FAIR      93  51  23 S3        30.14F
NUCLA          FAIR      90  37  15 NW8       30.23F
$$

COZ017>023-064>068-272100-
...SOUTHWEST COLORADO...

CITY           SKY/WX    TMP DP  RH WIND       PRES   REMARKS
DURANGO        FAIR      80  45  28 NW21G29   30.26S THUNDER
CORTEZ         FAIR      85  53  33 SW9       30.18F
PAGOSA SPRINGS FAIR      77  41  27 N5        30.35F THUNDER
TELLURIDE      FAIR      73  48  41 NW6       30.48F THUNDER
WOLF CREEK PAS TSTM      54  37  54 NW8       30.74S
$$

COZ009-010-012-014-032>034-037-058>063-272100-
...CENTRAL COLORADO...

CITY           SKY/WX    TMP DP  RH WIND       PRES   REMARKS
ASPEN          FAIR      84  40  21 NW14      30.33F
BUENA VISTA    FAIR      81  42  24 S5        30.33F
COPPER MTN     FAIR      64  36  34 NW9G17    30.70F
BERTHOUD PASS  FAIR      54  45  71 NW6       30.74S
COTTONWOOD PAS PTSUNNY   77  39  25 E6        30.51S
GUNNISON       FAIR      80  47  31 W7        30.32F
KREMMLING      PTSUNNY   82  55  39 W7        30.33F
LEADVILLE      PTSUNNY   70  39  32 N8        30.47F
MONARCH PASS   PTSUNNY   61  46  59 E12       30.79S THUNDER
SALIDA         FAIR      73  57  56 W10       30.39S
SUNLIGHT       FAIR      64  43  45 SW7       30.63F
WILKERSON PASS PTSUNNY   61  46  59 CALM      30.67S
$$

COZ069>075-272100-
...SAN LUIS VALLEY/SANGRE DE CRISTO MOUNTAINS...

CITY           SKY/WX    TMP DP  RH WIND       PRES   REMARKS
ALAMOSA        FAIR      75  56  51 SW9       30.33F
DEL NORTE      PTSUNNY   75  52  45 E3        30.37F
LA VETA PASS   NOT AVBL
SAGUACHE         N/A    N/A N/A N/A MISG        N/A
$$

COZ035-036-038>040-272100-
...NORTHERN COLORADO FRONT RANGE...

CITY           SKY/WX    TMP DP  RH WIND       PRES   REMARKS
DENVER INTL AP FAIR      85  56  37 VRB7G16   30.19F
DMNS CITY PARK   N/A     84  57  39 W5        30.18F
AURORA         MOSUNNY   83  58  43 SE7       30.21F
FRONT RANGE AP PTSUNNY   86  57  37 E12G20    30.22F
ERIE MUNI ARPT FAIR      84  54  36 SE8       30.19F
BOULDER MUN AP FAIR      81  57  44 NE6       30.20F
CENTENNIAL     PTSUNNY   80  57  45 VRB6      30.22F
BROOMFIELD     FAIR      81  55  41 NE3       30.23F
FORT COLLINS   FAIR      81  62  52 VRB7      30.19F
LONGMONT       FAIR      86  58  38 SE3       30.20F
$$

COZ041-046-047-076>085-087-088-272100-
...PIKES PEAK/PALMER DIVIDE AND SOUTHERN FOOTHILLS...

CITY           SKY/WX    TMP DP  RH WIND       PRES   REMARKS
COLO. SPRINGS  PTSUNNY   74  60  61 S13       30.29F
A. F. ACADEMY  PTSUNNY   74  60  61 S14       30.30F
SCHRIEVER AFB  FAIR      73  59  60 S9        30.30F
CHEYENNE MTN   PTSUNNY   70  58  65 S15       30.29S
ELLICOTT       CLOUDY   N/A N/A N/A S8        30.27F
FALCON           N/A     72  57  58 S10G16    30.35F
FORT CARSON    CLOUDY    74  61  62 S8        30.26F
LIMON          PTSUNNY   79  62  56 VRB3      30.24F
MONUMENT HILL  FAIR      72  57  60 S8        30.34F
CANON CITY     MOSUNNY   81  64  57 E13G21    30.22F
WALSENBURG     FAIR      82  59  44 NE6       30.26S
TRINIDAD       FAIR      81  56  42 E9        30.23F
$$

COZ042>045-048>051-090-091-272100-
...NORTHEAST COLORADO...

CITY           SKY/WX    TMP DP  RH WIND       PRES   REMARKS
GREELEY ARPT   FAIR      88  61  40 SE12      30.17F
AKRON          FAIR      82  59  45 SE14      30.19F
BURLINGTON     CLOUDY    79  63  57 E3        30.19F
WRAY           NOT AVBL
YUMA           MOCLDY    79  55  44 SE10G16   30.17F
STERLING       FAIR      86  61  42 SE9       30.13F
HOLYOKE        FAIR      82  63  51 SE8       30.16F
FORT MORGAN    FAIR      88  55  33 SE12G18   30.17F
$$

COZ086-089-092>099-272100-
...SOUTHEAST COLORADO...

CITY           SKY/WX    TMP DP  RH WIND       PRES   REMARKS
PUEBLO         FAIR      81  62  52 SE12G17   30.18F
LA JUNTA       PTSUNNY   81  66  60 SE12      30.17F
LAMAR          FAIR      77  68  73 E10       30.15F
SPRINGFIELD      N/A     71  68  90 E8        30.19F
$$




USA.gov is the U.S. government's official web portal to all federal, state and local government web resources and services.